URSA MAIOR (42776 NORAD) Tracking and Keplerian Element Data

This shows tracking and keplerian element data for the satellite.

Feedback or suggestion? Click here.




ElementValue
Catalog42776
NameURSA MAIOR
Epoch Orbit30065
Epoch Day324.67355482
Epoch Year2022
RAAN357.5551
Inclination97.1824
Eccentricity0.0012961
Argument of Perigee124.7393
Mean Anonmoly235.507
Mean Motion15.28849902
Decay Rate7.947E-05
L11 42776U 17036M 22324.67355482 .00007947 00000+0 28533-3 0 9996
L22 42776 97.1824 357.5551 0012961 124.7393 235.5070 15.28849902300652



Live tracking and technical data element details for URSA MAIOR (NORAD 42776). URSA MAIOR can be tracked NOW for your location showing map with azimuth and elevation plus other details from your city location.







IsCatalogInMostPopularTable: catalog: 42776, numindb: 548
Update: records affected: 1



GetName: 42776 URSA MAIOR

Hit Count: updated at: Mon, 28 Nov 2022 06:09:32 GMT